GW6592 Weather Reports


time (UTC)temp
C
wind
direction
speed
KPH
gust
KPH
rain 1hr
cm
rain 24hr
cm
rain mn
cm
humidity
%
barometer
mb
20260509064821 12 117 0.0 4.8 0.05 0.33 0.33 95 1008.2
20260509064319 12 22 0.0 3.2 0.00 0.33 0.33 95 1008.1
20260509063816 12 87 0.0 3.2 0.05 0.33 0.33 95 1008.3
20260509063312 12 68 1.6 3.2 0.00 0.33 0.33 95 1008.4
20260509062810 12 108 3.2 6.4 0.00 0.33 0.33 95 1008.4
20260509062307 12 132 3.2 3.2 0.05 0.33 0.33 96 1008.1
20260509061803 12 93 0.0 3.2 0.05 0.33 0.33 96 1008.3
20260509061302 12 121 1.6 1.6 0.18 0.30 0.30 96 1008.2
20260509060758 12 105 1.6 3.2 0.30 0.30 0.30 96 1008.3
20260509060255 12 139 4.8 4.8 0.43 0.28 0.28 96 1008.6
20260509055751 12 181 0.0 3.2 0.23 0.23 0.23 96 1008.8
20260509055247 12 112 1.6 3.2 0.13 0.20 0.20 96 1008.9
20260509054743 12 89 0.0 3.2 0.05 0.20 0.20 96 1009.0
20260509054240 12 100 3.2 3.2 0.05 0.18 0.18 96 1009.1
20260509053739 12 157 3.2 3.2 0.05 0.18 0.18 96 1009.2
20260509053235 12 20 1.6 4.8 0.18 0.18 0.18 96 1009.1
20260509052733 12 103 1.6 3.2 0.30 0.18 0.18 96 1009.1
20260509052231 12 113 3.2 6.4 0.30 0.15 0.15 96 1009.0
20260509051728 12 69 1.6 6.4 0.13 0.13 0.13 96 1009.2
20260509051226 12 119 3.2 8.0 0.05 0.10 0.10 96 1009.1
20260509050722 12 125 3.2 4.8 0.05 0.10 0.10 96 1009.1
20260509050219 12 109 1.6 3.2 0.05 0.10 0.10 96 1009.3
20260509045716 12 94 1.6 3.2 0.05 0.10 0.10 96 1008.9
20260509045213 12 66 1.6 4.8 0.00 0.08 0.08 96 1009.1
20260509044710 12 116 1.6 6.4 0.05 0.08 0.08 96 1009.2
20260509044208 12 15 0.0 3.2 0.13 0.08 0.08 96 1008.9
20260509043704 12 124 0.0 4.8 0.18 0.08 0.08 96 1008.8
20260509043200 12 41 3.2 3.2 0.18 0.05 0.05 96 1009.0
20260509042657 12 115 3.2 3.2 0.13 0.05 0.05 95 1008.9
20260509042153 12 117 1.6 6.4 0.05 0.03 0.03 95 1009.1
20260509041649 12 147 0.0 3.2 0.05 0.03 0.03 95 1009.0
20260509041147 12 121 3.2 4.8 0.13 0.03 0.03 95 1009.2
20260509040645 12 101 3.2 4.8 0.05 0.00 0.00 95 1009.2
20260509040142 12 118 1.6 3.2 0.00 0.00 0.00 95 1009.3
20260509035639 12 118 0.0 4.8 0.00 1.45 1.45 95 1009.2
20260509035135 12 69 0.0 3.2 0.00 1.45 1.45 95 1009.2
20260509034633 12 94 1.6 3.2 0.00 1.45 1.45 95 1009.4
20260509034130 12 84 1.6 3.2 0.05 1.45 1.45 95 1009.1
20260509033627 12 116 1.6 3.2 0.05 1.45 1.45 95 1009.1
20260509033124 12 111 3.2 6.4 0.00 1.45 1.45 95 1009.1
20260509032621 12 65 1.6 4.8 0.05 1.45 1.45 95 1009.3
20260509032118 12 113 3.2 3.2 0.05 1.45 1.45 95 1009.2
20260509031616 12 97 1.6 3.2 0.05 1.45 1.45 95 1009.3
20260509031113 12 113 0.0 3.2 0.05 1.45 1.45 95 1009.3
20260509030611 12 97 0.0 3.2 0.05 1.42 1.42 95 1009.0
20260509030108 12 112 3.2 3.2 0.05 1.42 1.42 95 1009.1
20260509025604 12 80 0.0 4.8 0.13 1.42 1.42 95 1009.2
20260509025059 12 40 1.6 3.2 0.13 1.42 1.42 95 1009.2
20260509024555 12 286 0.0 3.2 0.13 1.40 1.40 95 1009.3
20260509024052 12 47 0.0 4.8 0.05 1.40 1.40 94 1009.2
20260509023550 12 150 3.2 4.8 0.13 1.37 1.37 94 1009.4
20260509023046 12 108 1.6 3.2 0.18 1.37 1.37 94 1009.5
20260509022543 12 150 0.0 9.7 0.23 1.37 1.37 94 1009.4
20260509022041 12 113 3.2 6.4 0.79 1.35 1.35 94 1009.6
20260509021537 12 110 3.2 9.7 1.07 1.32 1.32 94 1009.8
20260509021034 13 148 1.6 4.8 0.79 1.19 1.19 94 1010.0
20260509020533 13 99 0.0 3.2 0.48 1.12 1.12 94 1009.6
20260509020029 13 229 0.0 4.8 0.23 1.07 1.07 94 1009.4
20260509015528 13 36 0.0 3.2 0.23 1.04 1.04 94 1009.4
20260509015025 13 92 0.0 9.7 0.23 1.02 1.02 94 1009.5
20260509014522 13 78 1.6 1.6 0.18 0.99 0.99 94 1009.5
20260509014018 13 89 0.0 3.2 0.13 0.99 0.99 94 1009.5
20260509013515 13 51 1.6 4.8 0.05 0.97 0.97 94 1009.3
20260509013011 13 301 1.6 3.2 0.05 0.97 0.97 94 1009.4
20260509012508 13 113 1.6 6.4 0.13 0.97 0.97 94 1009.4
20260509012004 13 129 3.2 3.2 0.13 0.94 0.94 94 1009.5
20260509011502 13 39 0.0 3.2 0.05 0.94 0.94 94 1009.4
20260509010959 13 111 0.0 4.8 0.05 0.94 0.94 94 1009.4
20260509010457 13 123 0.0 4.8 0.13 0.94 0.94 94 1009.2
20260509005953 13 131 1.6 3.2 0.13 0.91 0.91 94 1009.3
20260509005452 13 113 0.0 9.7 0.18 0.91 0.91 94 1009.2
20260509004951 13 113 0.0 3.2 0.18 0.89 0.89 94 1009.3
20260509004448 13 35 0.0 3.2 0.13 0.89 0.89 94 1009.2
20260509003946 13 93 1.6 4.8 0.13 0.86 0.86 94 1009.2
20260509003444 13 116 0.0 3.2 0.18 0.86 0.86 94 1009.2
20260509002941 13 55 0.0 3.2 0.13 0.84 0.84 94 1009.1
20260509002439 13 123 3.2 3.2 0.05 0.84 0.84 94 1008.9
20260509001936 13 119 0.0 3.2 0.23 0.81 0.81 94 1009.0
20260509001432 13 113 4.8 6.4 0.43 0.81 0.81 93 1009.3
20260509000929 13 353 0.0 3.2 0.43 0.76 0.76 93 1009.5
20260509000427 13 131 0.0 3.2 0.36 0.74 0.74 93 1009.6
20260508235922 13 164 0.0 1.6 0.23 0.69 0.69 93 1009.8
20260508235421 13 119 0.0 3.2 0.30 0.66 0.66 93 1009.5
20260508234917 13 89 0.0 3.2 0.30 0.66 0.66 93 1009.5
20260508234414 13 114 0.0 4.8 0.23 0.61 0.61 93 1009.6
20260508233912 13 63 0.0 3.2 0.18 0.58 0.58 92 1009.5
20260508233411 13 105 1.6 3.2 0.18 0.56 0.56 92 1009.5
20260508232907 13 269 0.0 0.0 0.30 0.56 0.56 92 1009.5
20260508232404 13 131 0.0 4.8 0.53 0.53 0.53 92 1009.3
20260508231902 13 101 1.6 3.2 0.61 0.51 0.51 92 1009.5
20260508231358 13 93 3.2 3.2 0.48 0.46 0.46 92 1009.8
20260508230855 13 92 3.2 4.8 0.43 0.41 0.41 92 1009.8
20260508230351 13 82 1.6 3.2 0.18 0.36 0.36 92 1010.3
20260508225849 13 91 3.2 4.8 0.13 0.33 0.33 91 1009.9
20260508225345 13 99 3.2 3.2 0.13 0.33 0.33 91 1009.8
20260508224844 13 91 3.2 4.8 0.13 0.30 0.30 90 1009.8
20260508224341 13 91 3.2 3.2 0.18 0.30 0.30 90 1009.5
20260508223838 13 84 3.2 4.8 0.30 0.28 0.28 89 1009.5
20260508223335 13 80 4.8 4.8 0.30 0.28 0.28 90 1009.8
20260508222833 13 87 3.2 3.2 0.18 0.23 0.23 90 1009.9
20260508222330 13 102 4.8 6.4 0.18 0.20 0.20 90 1009.9
20260508221826 13 92 3.2 4.8 0.18 0.20 0.20 89 1010.0
20260508221322 13 95 3.2 3.2 0.18 0.18 0.18 88 1010.0
20260508220819 13 116 0.0 4.8 0.18 0.18 0.18 88 1010.1
20260508220315 13 98 6.4 6.4 0.23 0.15 0.15 86 1010.1
20260508215812 14 75 4.8 6.4 0.30 0.15 0.15 85 1009.9
20260508215308 14 93 3.2 8.0 0.18 0.10 0.10 82 1009.9
20260508214805 15 63 3.2 6.4 0.13 0.10 0.10 80 1009.6
20260508214302 15 103 4.8 4.8 0.13 0.08 0.08 77 1009.6
20260508213759 16 75 1.6 8.0 0.13 0.08 0.08 73 1009.5
20260508213256 16 78 1.6 8.0 0.00 0.05 0.05 68 1009.2
20260508212752 16 104 3.2 6.4 0.00 0.05 0.05 66 1009.2
20260508212248 16 56 0.0 4.8 0.05 0.05 0.05 67 1009.2
20260508211744 16 107 4.8 4.8 0.13 0.05 0.05 67 1009.2
20260508211240 16 104 3.2 4.8 0.05 0.05 0.05 65 1008.9
20260508210738 17 78 1.6 3.2 0.00 0.03 0.03 65 1009.3
20260508210235 17 96 0.0 4.8 0.00 0.03 0.03 60 1009.1
20260508205726 17 84 1.6 4.8 0.00 0.03 0.03 60 1009.0
20260508205223 17 103 3.2 6.4 0.00 0.03 0.03 57 1008.9
20260508204719 18 78 3.2 3.2 0.00 0.03 0.03 57 1009.0
20260508204215 18 92 3.2 6.4 0.00 0.03 0.03 54 1009.3
20260508203711 18 110 3.2 3.2 0.00 0.03 0.03 53 1008.9
20260508203208 18 23 0.0 8.0 0.00 0.03 0.03 51 1009.0
20260508202704 18 136 1.6 4.8 0.00 0.03 0.03 51 1009.1
20260508202202 18 107 3.2 6.4 0.00 0.03 0.03 51 1009.0
20260508201658 18 115 3.2 4.8 0.00 0.03 0.03 51 1009.3
20260508201155 18 48 0.0 4.8 0.00 0.03 0.03 51 1009.2
20260508200652 18 114 1.6 3.2 0.00 0.03 0.03 51 1009.3
20260508200148 18 75 1.6 3.2 0.00 0.03 0.03 52 1009.2
20260508195645 18 103 0.0 4.8 0.00 0.03 0.03 54 1009.2
20260508195141 18 87 1.6 4.8 0.00 0.03 0.03 52 1009.4
20260508194638 18 61 1.6 4.8 0.00 0.03 0.03 52 1009.6
20260508194135 18 121 3.2 6.4 0.00 0.03 0.03 52 1009.8
20260508193631 19 96 1.6 6.4 0.00 0.03 0.03 53 1009.8
20260508193128 19 91 1.6 3.2 0.00 0.03 0.03 53 1010.0
20260508192625 18 78 3.2 3.2 0.00 0.03 0.03 56 1010.2
20260508192122 18 49 1.6 3.2 0.00 0.03 0.03 55 1010.1
20260508191618 18 105 3.2 6.4 0.00 0.03 0.03 53 1010.2
20260508191115 18 72 1.6 4.8 0.00 0.03 0.03 55 1010.4
20260508190613 18 92 3.2 3.2 0.00 0.03 0.03 54 1010.2
20260508190109 18 115 3.2 3.2 0.00 0.03 0.03 53 1010.5
20260508185606 18 117 4.8 6.4 0.00 0.03 0.03 53 1010.5
20260508185103 18 88 3.2 3.2 0.00 0.03 0.03 53 1010.5
20260508184601 17 105 3.2 6.4 0.00 0.03 0.03 52 1010.7
20260508184058 18 98 3.2 8.0 0.00 0.03 0.03 52 1010.7
20260508183554 18 70 1.6 6.4 0.00 0.03 0.03 52 1010.8
20260508183050 18 88 3.2 8.0 0.00 0.03 0.03 51 1010.6
20260508182547 18 97 4.8 8.0 0.00 0.03 0.03 52 1010.8
20260508182043 18 115 1.6 6.4 0.00 0.03 0.03 50 1010.9
20260508181538 18 119 1.6 3.2 0.00 0.03 0.03 49 1010.7
20260508181036 18 107 6.4 6.4 0.00 0.03 0.03 49 1011.0
20260508180533 18 69 3.2 6.4 0.00 0.03 0.03 50 1011.0
20260508180029 18 48 1.6 4.8 0.00 0.03 0.03 52 1011.0
20260508175526 19 106 1.6 3.2 0.00 0.03 0.03 51 1010.9
20260508175023 19 128 6.4 9.7 0.00 0.03 0.03 49 1011.0
20260508174521 19 198 1.6 6.4 0.00 0.03 0.03 50 1010.9
20260508174017 19 115 4.8 9.7 0.18 0.03 0.03 50 1011.0
20260508173514 19 24 0.0 8.0 0.18 0.03 0.03 50 1011.1
20260508173010 18 87 1.6 6.4 0.00 0.00 0.00 53 1011.0
20260508172508 18 77 6.4 6.4 0.00 0.00 0.00 53 1011.3
20260508172004 18 95 1.6 9.7 0.00 0.00 0.00 49 1011.3
20260508171501 19 83 1.6 6.4 0.00 0.00 0.00 49 1011.3
20260508170957 18 83 4.8 9.7 0.00 0.00 0.00 52 1011.6
20260508170454 18 96 1.6 8.0 0.00 0.00 0.00 51 1011.7
20260508165951 19 96 1.6 4.8 0.00 0.00 0.00 50 1011.9
20260508165449 18 77 3.2 4.8 0.00 0.00 0.00 53 1011.7
20260508164944 18 109 1.6 6.4 0.00 0.00 0.00 53 1011.9
20260508164442 18 58 3.2 4.8 0.00 0.00 0.00 56 1012.1
20260508163939 17 79 1.6 6.4 0.00 0.00 0.00 52 1012.0
20260508163437 17 63 4.8 11.3 0.00 0.00 0.00 51 1012.3
20260508162932 18 81 3.2 9.7 0.00 0.00 0.00 51 1012.4
20260508162430 18 57 6.4 9.7 0.00 0.00 0.00 50 1012.2
20260508161927 18 48 4.8 12.9 0.00 0.00 0.00 51 1012.4
20260508161424 19 85 4.8 9.7 0.00 0.00 0.00 49 1012.5
20260508160921 18 58 3.2 6.4 0.00 0.00 0.00 51 1012.3
20260508160420 18 83 1.6 6.4 0.00 0.00 0.00 50 1012.4
20260508155915 18 77 6.4 8.0 0.00 0.00 0.00 51 1012.5
20260508155413 19 94 3.2 6.4 0.00 0.00 0.00 51 1012.3
20260508154910 19 92 3.2 6.4 0.00 0.00 0.00 51 1012.3
20260508154407 18 80 3.2 6.4 0.00 0.00 0.00 51 1012.3
20260508153904 18 70 6.4 6.4 0.00 0.00 0.00 51 1012.3
20260508153401 18 105 0.0 4.8 0.00 0.00 0.00 54 1012.6
20260508152857 17 94 3.2 6.4 0.00 0.00 0.00 54 1012.4
20260508152353 17 86 4.8 6.4 0.00 0.00 0.00 52 1012.5
20260508151850 17 88 4.8 9.7 0.00 0.00 0.00 51 1012.6
20260508151347 17 74 4.8 16.1 0.00 0.00 0.00 50 1012.4
20260508150843 17 71 8.0 9.7 0.00 0.00 0.00 51 1012.4
20260508150340 17 61 1.6 8.0 0.00 0.00 0.00 52 1012.6
20260508145836 17 68 3.2 9.7 0.00 0.00 0.00 51 1012.6
20260508145332 16 86 4.8 6.4 0.00 0.00 0.00 52 1012.5
20260508144829 16 14 6.4 12.9 0.00 0.00 0.00 51 1012.6
20260508144327 16 84 4.8 8.0 0.00 0.00 0.00 53 1012.7
20260508143825 16 44 8.0 12.9 0.00 0.00 0.00 53 1013.0
20260508143321 16 98 1.6 9.7 0.00 0.00 0.00 53 1012.9
20260508142818 16 33 4.8 11.3 0.00 0.00 0.00 53 1012.8
20260508142315 15 76 9.7 11.3 0.00 0.00 0.00 53 1012.9
20260508141811 15 66 4.8 12.9 0.00 0.00 0.00 54 1013.1
20260508141309 15 84 4.8 6.4 0.00 0.00 0.00 55 1013.1
20260508140806 15 71 6.4 8.0 0.00 0.00 0.00 54 1012.9
20260508140303 15 73 3.2 9.7 0.00 0.00 0.00 54 1013.1
20260508135758 15 68 4.8 8.0 0.00 0.00 0.00 55 1013.4
20260508135255 14 87 3.2 9.7 0.00 0.00 0.00 55 1013.3
20260508134750 14 78 6.4 11.3 0.00 0.00 0.00 54 1013.1
20260508134248 15 107 1.6 12.9 0.00 0.00 0.00 54 1013.4
20260508133744 14 80 4.8 6.4 0.00 0.00 0.00 56 1013.1
20260508133242 14 92 6.4 8.0 0.00 0.00 0.00 55 1013.4
20260508132740 14 77 6.4 9.7 0.00 0.00 0.00 54 1013.3
20260508132237 14 71 6.4 9.7 0.00 0.00 0.00 53 1013.2
20260508131732 14 70 6.4 8.0 0.00 0.00 0.00 54 1013.3
20260508131229 14 82 4.8 9.7 0.00 0.00 0.00 52 1013.3
20260508130726 14 55 4.8 9.7 0.00 0.00 0.00 53 1013.3
20260508130223 13 94 3.2 4.8 0.00 0.00 0.00 54 1013.4
20260508125718 13 89 4.8 4.8 0.00 0.00 0.00 56 1013.3
20260508125215 13 66 4.8 8.0 0.00 0.00 0.00 53 1013.1
20260508124714 13 82 4.8 8.0 0.00 0.00 0.00 55 1013.2
20260508124210 12 63 3.2 8.0 0.00 0.00 0.00 57 1013.1
20260508123709 12 86 6.4 6.4 0.00 0.00 0.00 60 1013.3
20260508123206 11 72 4.8 8.0 0.00 0.00 0.00 61 1013.2
20260508122702 11 64 3.2 6.4 0.00 0.00 0.00 61 1013.2
20260508122159 11 80 6.4 8.0 0.00 0.00 0.00 60 1013.4
20260508121657 11 81 3.2 4.8 0.00 0.00 0.00 61 1013.3
20260508121155 11 120 3.2 8.0 0.00 0.00 0.00 59 1013.4
20260508120652 12 47 3.2 6.4 0.00 0.00 0.00 57 1013.3
20260508120150 12 87 4.8 8.0 0.00 0.00 0.00 58 1013.0
20260508115648 11 77 4.8 6.4 0.00 0.00 0.00 60 1013.1
20260508115144 11 88 3.2 4.8 0.00 0.00 0.00 59 1013.1
20260508114641 11 72 4.8 6.4 0.00 0.00 0.00 60 1013.2
20260508114137 10 87 3.2 4.8 0.00 0.00 0.00 63 1013.0
20260508113634 10 75 4.8 6.4 0.00 0.00 0.00 64 1012.9
20260508113133 9 91 3.2 4.8 0.00 0.00 0.00 65 1013.1
20260508112629 9 84 4.8 6.4 0.00 0.00 0.00 66 1013.1
20260508112126 9 105 4.8 6.4 0.00 0.00 0.00 66 1013.0
20260508111622 9 102 3.2 4.8 0.00 0.00 0.00 66 1013.2
20260508111120 9 84 3.2 4.8 0.00 0.00 0.00 66 1013.0
20260508110618 9 89 3.2 6.4 0.00 0.00 0.00 66 1012.9
20260508110114 8 89 3.2 4.8 0.00 0.00 0.00 66 1013.0
20260508105613 8 94 4.8 4.8 0.00 0.00 0.00 66 1012.7
20260508105111 8 84 3.2 6.4 0.00 0.00 0.00 66 1012.9
20260508104608 8 88 3.2 4.8 0.00 0.00 0.00 66 1012.9
20260508104105 8 96 3.2 6.4 0.00 0.00 0.00 66 1012.9
20260508103602 9 89 3.2 4.8 0.00 0.00 0.00 66 1013.0
20260508103059 9 94 3.2 4.8 0.00 0.00 0.00 66 1013.2
20260508102557 9 89 3.2 6.4 0.00 0.00 0.00 65 1013.0
20260508102054 9 88 3.2 4.8 0.00 0.00 0.00 65 1012.8
20260508101552 9 109 1.6 8.0 0.00 0.00 0.00 64 1012.8
20260508101048 9 101 4.8 4.8 0.00 0.00 0.00 64 1013.0
20260508100547 9 79 4.8 6.4 0.00 0.00 0.00 64 1012.9
20260508100043 9 86 3.2 4.8 0.00 0.00 0.00 64 1012.8
20260508095540 9 93 3.2 4.8 0.00 0.00 0.00 64 1012.8
20260508095037 10 97 3.2 4.8 0.00 0.00 0.00 64 1013.0
20260508094534 10 79 1.6 4.8 0.00 0.00 0.00 63 1012.9
20260508094031 10 103 4.8 6.4 0.00 0.00 0.00 63 1012.8
20260508093528 10 101 3.2 6.4 0.00 0.00 0.00 65 1012.9
20260508093026 10 85 3.2 4.8 0.00 0.00 0.00 64 1012.9
20260508092523 10 83 4.8 4.8 0.00 0.00 0.00 63 1012.9
20260508092022 10 84 4.8 4.8 0.00 0.00 0.00 63 1012.9
20260508091518 10 84 3.2 6.4 0.00 0.00 0.00 65 1012.8
20260508091015 10 89 3.2 4.8 0.00 0.00 0.00 67 1012.9
20260508090514 10 86 3.2 4.8 0.00 0.00 0.00 69 1013.0
20260508090010 10 102 3.2 3.2 0.00 0.00 0.00 71 1012.9
20260508085506 10 81 3.2 3.2 0.00 0.00 0.00 71 1013.1
20260508085003 10 104 3.2 4.8 0.00 0.00 0.00 71 1013.1
20260508084500 10 86 1.6 4.8 0.00 0.00 0.00 70 1013.2
20260508083958 10 69 4.8 4.8 0.00 0.00 0.00 70 1013.1
20260508083454 10 85 4.8 4.8 0.00 0.00 0.00 69 1013.3
20260508082950 10 82 3.2 4.8 0.00 0.00 0.00 69 1013.3
20260508082447 10 92 3.2 4.8 0.00 0.00 0.00 68 1013.1
20260508081945 10 94 3.2 3.2 0.00 0.00 0.00 68 1013.3
20260508081441 11 84 3.2 4.8 0.00 0.00 0.00 67 1013.6
20260508080937 11 87 3.2 6.4 0.00 0.00 0.00 65 1013.3
20260508080436 11 77 0.0 4.8 0.00 0.00 0.00 63 1013.5
20260508075932 11 71 4.8 6.4 0.00 0.00 0.00 63 1013.5
20260508075430 11 97 3.2 4.8 0.00 0.00 0.00 63 1013.3
20260508074927 11 96 4.8 4.8 0.00 0.00 0.00 62 1013.4
20260508074424 11 93 3.2 6.4 0.00 0.00 0.00 61 1013.2
20260508073921 11 86 4.8 4.8 0.00 0.00 0.00 60 1013.5
20260508073419 11 75 9.7 9.7 0.00 0.00 0.00 58 1013.4
20260508072916 11 77 8.0 9.7 0.00 0.00 0.00 57 1013.6
20260508072412 11 80 3.2 9.7 0.00 0.00 0.00 58 1013.5
20260508071909 11 83 4.8 9.7 0.00 0.00 0.00 58 1013.6
20260508071407 11 86 4.8 6.4 0.00 0.00 0.00 58 1013.7
20260508070905 11 95 4.8 9.7 0.00 0.00 0.00 58 1013.5
20260508070402 11 93 4.8 6.4 0.00 0.00 0.00 57 1013.6
20260508065900 11 83 4.8 4.8 0.00 0.00 0.00 57 1013.4
20260508065358 11 93 4.8 6.4 0.00 0.00 0.00 56 1013.5
20260508064856 11 88 3.2 4.8 0.00 0.00 0.00 57 1013.4